Time,TemperatureF,DewpointF,PressureIn,WindDirection,WindDirectionDegrees,WindSpeedMPH,WindSpeedGustMPH,Humidity,HourlyPrecipIn,Conditions,Clouds,dailyrainin,SoftwareType,DateUTC
2012-06-03 00:03:00,51.7,41.0,29.78,NNE,18,1.0,1.0,66,0.00,,,0.00,weatherlink.com 1.10,2012-06-03 07:03:00,
2012-06-03 00:18:00,52.9,41.0,29.78,NNE,25,2.0,2.0,64,0.00,,,0.00,weatherlink.com 1.10,2012-06-03 07:18:00,
2012-06-03 00:33:00,53.0,41.0,29.78,NNE,26,1.0,2.0,65,0.00,,,0.00,weatherlink.com 1.10,2012-06-03 07:33:00,
2012-06-03 00:48:00,53.4,42.0,29.78,NNE,27,1.0,2.0,66,0.00,,,0.00,weatherlink.com 1.10,2012-06-03 07:48:00,
2012-06-03 01:03:00,53.0,42.0,29.77,NNE,23,1.0,2.0,66,0.00,,,0.00,weatherlink.com 1.10,2012-06-03 08:03:00,
2012-06-03 01:18:00,52.2,41.0,29.77,NNE,22,1.0,2.0,65,0.00,,,0.00,weatherlink.com 1.10,2012-06-03 08:18:00,
2012-06-03 01:33:00,51.3,37.0,29.77,NE,36,0.0,2.0,59,0.00,,,0.00,weatherlink.com 1.10,2012-06-03 08:33:00,
2012-06-03 01:48:00,51.3,38.0,29.77,NNE,23,2.0,2.0,61,0.00,,,0.00,weatherlink.com 1.10,2012-06-03 08:48:00,
2012-06-03 02:03:00,52.2,39.0,29.76,North,6,2.0,2.0,61,0.00,,,0.00,weatherlink.com 1.10,2012-06-03 09:03:00,
2012-06-03 02:18:00,52.3,39.0,29.76,NNE,20,1.0,2.0,60,0.00,,,0.00,weatherlink.com 1.10,2012-06-03 09:18:00,
2012-06-03 02:33:00,53.1,38.0,29.76,NNE,27,1.0,3.0,58,0.00,,,0.00,weatherlink.com 1.10,2012-06-03 09:33:00,
2012-06-03 02:48:00,51.8,40.0,29.76,NNE,26,2.0,2.0,64,0.00,,,0.00,weatherlink.com 1.10,2012-06-03 09:48:00,
2012-06-03 03:03:00,54.5,44.0,29.76,North,5,2.0,3.0,69,0.00,,,0.00,weatherlink.com 1.10,2012-06-03 10:03:00,
2012-06-03 03:18:00,55.7,43.0,29.76,NNE,18,1.0,2.0,63,0.00,,,0.00,weatherlink.com 1.10,2012-06-03 10:18:00,
2012-06-03 03:34:00,55.7,42.0,29.75,NNE,13,0.0,2.0,60,0.00,,,0.00,weatherlink.com 1.10,2012-06-03 10:34:00,
2012-06-03 03:49:00,52.9,40.0,29.75,NNE,22,0.0,2.0,63,0.00,,,0.00,weatherlink.com 1.10,2012-06-03 10:49:00,
2012-06-03 04:04:00,50.8,38.0,29.76,North,354,1.0,2.0,63,0.00,,,0.00,weatherlink.com 1.10,2012-06-03 11:04:00,
2012-06-03 04:19:00,51.1,38.0,29.76,NNE,20,2.0,2.0,61,0.00,,,0.00,weatherlink.com 1.10,2012-06-03 11:19:00,
2012-06-03 04:34:00,50.3,35.0,29.76,NNE,26,1.0,4.0,56,0.00,,,0.00,weatherlink.com 1.10,2012-06-03 11:34:00,
2012-06-03 04:49:00,50.9,35.0,29.77,NNE,12,1.0,4.0,55,0.00,,,0.00,weatherlink.com 1.10,2012-06-03 11:49:00,
2012-06-03 05:04:00,49.9,33.0,29.76,NNE,26,3.0,3.0,52,0.00,,,0.00,weatherlink.com 1.10,2012-06-03 12:04:00,
2012-06-03 05:19:00,51.6,32.0,29.76,NNE,18,2.0,2.0,48,0.00,,,0.00,weatherlink.com 1.10,2012-06-03 12:19:00,
2012-06-03 05:34:00,56.9,30.0,29.77,NNE,16,2.0,3.0,36,0.00,,,0.00,weatherlink.com 1.10,2012-06-03 12:34:00,
2012-06-03 06:04:00,58.1,31.0,29.77,NNE,15,2.0,3.0,36,0.00,,,0.00,weatherlink.com 1.10,2012-06-03 13:04:00,
2012-06-03 06:19:00,58.3,33.0,29.78,NNE,18,0.0,2.0,38,0.00,,,0.00,weatherlink.com 1.10,2012-06-03 13:19:00,
2012-06-03 06:34:00,57.7,32.0,29.78,NNE,19,1.0,2.0,38,0.00,,,0.00,weatherlink.com 1.10,2012-06-03 13:34:00,
2012-06-03 06:49:00,55.9,35.0,29.78,North,10,2.0,2.0,45,0.00,,,0.00,weatherlink.com 1.10,2012-06-03 13:49:00,
2012-06-03 07:04:00,58.4,32.0,29.78,NNE,15,2.0,2.0,37,0.00,,,0.00,weatherlink.com 1.10,2012-06-03 14:04:00,
2012-06-03 07:19:00,60.9,36.0,29.78,NNE,27,0.0,1.0,39,0.00,,,0.00,weatherlink.com 1.10,2012-06-03 14:19:00,
2012-06-03 07:34:00,63.9,38.0,29.79,NNE,30,0.0,2.0,39,0.00,,,0.00,weatherlink.com 1.10,2012-06-03 14:34:00,
2012-06-03 08:04:00,66.4,38.0,29.80,NNE,16,0.0,1.0,35,0.00,,,0.00,weatherlink.com 1.10,2012-06-03 15:04:00,
2012-06-03 08:19:00,67.3,45.0,29.80,NNE,16,0.0,0.0,45,0.00,,,0.00,weatherlink.com 1.10,2012-06-03 15:19:00,
2012-06-03 08:49:00,67.9,45.0,29.80,SSW,212,1.0,1.0,44,0.00,,,0.00,weatherlink.com 1.10,2012-06-03 15:49:00,
2012-06-03 09:04:00,67.3,49.0,29.80,SSW,210,0.0,2.0,52,0.00,,,0.00,weatherlink.com 1.10,2012-06-03 16:04:00,
2012-06-03 09:19:00,66.7,50.0,29.80,SSW,208,0.0,1.0,55,0.00,,,0.00,weatherlink.com 1.10,2012-06-03 16:19:00,
2012-06-03 09:34:00,67.2,50.0,29.80,SW,218,0.0,1.0,54,0.00,,,0.00,weatherlink.com 1.10,2012-06-03 16:34:00,
2012-06-03 09:49:00,68.2,49.0,29.80,SSW,207,1.0,2.0,51,0.00,,,0.00,weatherlink.com 1.10,2012-06-03 16:49:00,
2012-06-03 10:19:00,69.9,50.0,29.81,SSW,208,1.0,2.0,49,0.00,,,0.00,weatherlink.com 1.10,2012-06-03 17:19:00,
2012-06-03 10:34:00,70.3,49.0,29.81,SSW,207,0.0,2.0,47,0.00,,,0.00,weatherlink.com 1.10,2012-06-03 17:34:00,
2012-06-03 10:50:00,70.9,50.0,29.82,SSW,211,0.0,4.0,47,0.00,,,0.00,weatherlink.com 1.10,2012-06-03 17:50:00,
2012-06-03 11:05:00,71.5,49.0,29.82,SSW,207,2.0,3.0,45,0.00,,,0.00,weatherlink.com 1.10,2012-06-03 18:05:00,
2012-06-03 11:20:00,73.2,49.0,29.83,SSW,211,0.0,3.0,43,0.00,,,0.00,weatherlink.com 1.10,2012-06-03 18:20:00,
2012-06-03 11:35:00,74.2,50.0,29.83,SW,229,1.0,4.0,43,0.00,,,0.00,weatherlink.com 1.10,2012-06-03 18:35:00,
2012-06-03 11:50:00,75.6,50.0,29.83,SSW,211,0.0,3.0,41,0.00,,,0.00,weatherlink.com 1.10,2012-06-03 18:50:00,
2012-06-03 12:05:00,76.5,50.0,29.83,SW,214,0.0,3.0,40,0.00,,,0.00,weatherlink.com 1.10,2012-06-03 19:05:00,
2012-06-03 12:20:00,77.6,50.0,29.83,SSW,212,1.0,4.0,38,0.00,,,0.00,weatherlink.com 1.10,2012-06-03 19:20:00,
2012-06-03 12:35:00,78.3,50.0,29.83,SW,214,0.0,2.0,37,0.00,,,0.00,weatherlink.com 1.10,2012-06-03 19:35:00,
2012-06-03 12:50:00,78.7,49.0,29.83,SSW,212,4.0,4.0,35,0.00,,,0.00,weatherlink.com 1.10,2012-06-03 19:50:00,
2012-06-03 13:05:00,79.6,51.0,29.82,SSW,212,2.0,3.0,37,0.00,,,0.00,weatherlink.com 1.10,2012-06-03 20:05:00,
2012-06-03 13:20:00,78.3,49.0,29.82,SSW,210,0.0,5.0,36,0.00,,,0.00,weatherlink.com 1.10,2012-06-03 20:20:00,
2012-06-03 13:35:00,78.4,51.0,29.82,SSW,211,0.0,5.0,38,0.00,,,0.00,weatherlink.com 1.10,2012-06-03 20:35:00,
2012-06-03 14:20:00,79.2,51.0,29.82,SSW,210,1.0,4.0,37,0.00,,,0.00,weatherlink.com 1.10,2012-06-03 21:20:00,
2012-06-03 14:35:00,78.8,52.0,29.82,WSW,245,1.0,3.0,40,0.00,,,0.00,weatherlink.com 1.10,2012-06-03 21:35:00,
2012-06-03 14:50:00,78.7,53.0,29.81,ESE,108,0.0,2.0,41,0.00,,,0.00,weatherlink.com 1.10,2012-06-03 21:50:00,
2012-06-03 15:05:00,78.3,52.0,29.81,NNE,26,1.0,3.0,40,0.00,,,0.00,weatherlink.com 1.10,2012-06-03 22:05:00,
2012-06-03 15:20:00,77.9,52.0,29.81,South,169,0.0,3.0,41,0.00,,,0.00,weatherlink.com 1.10,2012-06-03 22:20:00,
2012-06-03 15:35:00,77.4,51.0,29.81,NE,53,0.0,3.0,40,0.00,,,0.00,weatherlink.com 1.10,2012-06-03 22:35:00,
2012-06-03 15:50:00,76.7,52.0,29.81,ESE,116,0.0,3.0,42,0.00,,,0.00,weatherlink.com 1.10,2012-06-03 22:50:00,
2012-06-03 16:20:00,75.3,52.0,29.80,SW,235,1.0,4.0,44,0.00,,,0.00,weatherlink.com 1.10,2012-06-03 23:20:00,
2012-06-03 16:35:00,74.7,52.0,29.80,NE,51,0.0,3.0,45,0.00,,,0.00,weatherlink.com 1.10,2012-06-03 23:35:00,
2012-06-03 16:50:00,74.3,52.0,29.80,North,355,0.0,4.0,45,0.00,,,0.00,weatherlink.com 1.10,2012-06-03 23:50:00,
2012-06-03 17:05:00,74.6,52.0,29.80,NW,312,2.0,2.0,45,0.00,,,0.00,weatherlink.com 1.10,2012-06-04 00:05:00,
2012-06-03 17:20:00,73.6,51.0,29.80,NW,325,1.0,3.0,46,0.00,,,0.00,weatherlink.com 1.10,2012-06-04 00:20:00,
2012-06-03 17:35:00,72.0,52.0,29.80,North,5,1.0,3.0,50,0.00,,,0.00,weatherlink.com 1.10,2012-06-04 00:35:00,
2012-06-03 17:50:00,70.9,52.0,29.80,WSW,238,1.0,4.0,51,0.00,,,0.00,weatherlink.com 1.10,2012-06-04 00:50:00,
2012-06-03 18:05:00,70.2,52.0,29.81,ESE,103,0.0,3.0,53,0.00,,,0.00,weatherlink.com 1.10,2012-06-04 01:05:00,
2012-06-03 18:35:00,67.3,52.0,29.81,WNW,290,0.0,3.0,59,0.00,,,0.00,weatherlink.com 1.10,2012-06-04 01:35:00,
2012-06-03 18:50:00,66.5,52.0,29.81,NNE,17,1.0,3.0,61,0.00,,,0.00,weatherlink.com 1.10,2012-06-04 01:50:00,
2012-06-03 19:05:00,65.8,53.0,29.81,NE,43,1.0,3.0,63,0.00,,,0.00,weatherlink.com 1.10,2012-06-04 02:05:00,
2012-06-03 19:20:00,64.9,53.0,29.81,NW,314,0.0,2.0,65,0.00,,,0.00,weatherlink.com 1.10,2012-06-04 02:20:00,
2012-06-03 19:35:00,63.7,53.0,29.82,NE,43,0.0,1.0,68,0.00,,,0.00,weatherlink.com 1.10,2012-06-04 02:35:00,
2012-06-03 19:50:00,62.5,53.0,29.82,North,358,0.0,1.0,71,0.00,,,0.00,weatherlink.com 1.10,2012-06-04 02:50:00,
2012-06-03 20:05:00,60.6,50.0,29.82,North,11,1.0,2.0,69,0.00,,,0.00,weatherlink.com 1.10,2012-06-04 03:05:00,
2012-06-03 20:35:00,57.5,48.0,29.82,NNE,19,0.0,1.0,71,0.00,,,0.00,weatherlink.com 1.10,2012-06-04 03:35:00,
2012-06-03 20:50:00,58.4,50.0,29.82,North,6,1.0,2.0,74,0.00,,,0.00,weatherlink.com 1.10,2012-06-04 03:50:00,
2012-06-03 21:05:00,60.6,51.0,29.83,North,8,1.0,2.0,70,0.00,,,0.00,weatherlink.com 1.10,2012-06-04 04:05:00,
2012-06-03 21:20:00,61.3,50.0,29.83,North,11,1.0,2.0,67,0.00,,,0.00,weatherlink.com 1.10,2012-06-04 04:20:00,
2012-06-03 21:35:00,61.5,50.0,29.83,North,349,1.0,3.0,66,0.00,,,0.00,weatherlink.com 1.10,2012-06-04 04:35:00,
2012-06-03 21:50:00,62.4,47.0,29.83,North,9,2.0,3.0,58,0.00,,,0.00,weatherlink.com 1.10,2012-06-04 04:50:00,
2012-06-03 22:05:00,62.6,45.0,29.83,North,1,1.0,3.0,52,0.00,,,0.00,weatherlink.com 1.10,2012-06-04 05:05:00,
2012-06-03 22:21:00,61.9,42.0,29.84,North,6,1.0,2.0,48,0.00,,,0.00,weatherlink.com 1.10,2012-06-04 05:21:00,
2012-06-03 22:36:00,59.0,41.0,29.83,North,8,1.0,1.0,51,0.00,,,0.00,weatherlink.com 1.10,2012-06-04 05:36:00,
2012-06-03 22:51:00,58.1,38.0,29.83,NNE,26,1.0,2.0,48,0.00,,,0.00,weatherlink.com 1.10,2012-06-04 05:51:00,
2012-06-03 23:06:00,59.9,37.0,29.83,North,10,1.0,2.0,43,0.00,,,0.00,weatherlink.com 1.10,2012-06-04 06:06:00,
2012-06-03 23:21:00,61.6,40.0,29.83,North,5,1.0,3.0,45,0.00,,,0.00,weatherlink.com 1.10,2012-06-04 06:21:00,
2012-06-03 23:36:00,61.2,46.0,29.83,North,354,1.0,2.0,57,0.00,,,0.00,weatherlink.com 1.10,2012-06-04 06:36:00,